GAP2984 RPVA-RPLL

Flight info

Callsign GAP2984
Flight time N/A
Altitude 38000
Route MALAG4R MALAG W9 AKDAP AKDAP3P
Aircraft A321/M-SDE3FGHIRWY/LB1

Departure

Time 2026-04-18 08:22
Airport Daniel Z. Romualdez Airport (RPVA)

Arrival

Time N/A
Airport Ninoy Aquino International Airport (RPLL)
Time Latitude Longitude Altitude Speed Heading
2026-04-18 07:59 11.22634 125.02651 20 ft 0 kts 317°
2026-04-18 08:16 11.22634 125.02650 20 ft 0 kts 317°
2026-04-18 08:16 11.22639 125.02647 20 ft 1 kts 339°
2026-04-18 08:16 11.22645 125.02651 20 ft 1 kts 62°
2026-04-18 08:17 11.22636 125.02665 20 ft 3 kts 148°
2026-04-18 08:17 11.22611 125.02680 20 ft 4 kts 148°
2026-04-18 08:17 11.22582 125.02702 20 ft 5 kts 137°
2026-04-18 08:17 11.22554 125.02735 20 ft 6 kts 129°
2026-04-18 08:18 11.22513 125.02758 20 ft 7 kts 181°
2026-04-18 08:18 11.22459 125.02754 20 ft 8 kts 184°
2026-04-18 08:18 11.22399 125.02750 20 ft 8 kts 184°
2026-04-18 08:18 11.22334 125.02747 20 ft 9 kts 183°
2026-04-18 08:19 11.22263 125.02742 21 ft 10 kts 184°
2026-04-18 08:19 11.22187 125.02736 21 ft 11 kts 184°
2026-04-18 08:19 11.22106 125.02731 21 ft 11 kts 183°
2026-04-18 08:19 11.22022 125.02727 21 ft 12 kts 184°
2026-04-18 08:20 11.21936 125.02720 22 ft 12 kts 184°
2026-04-18 08:20 11.21857 125.02731 22 ft 11 kts 160°
2026-04-18 08:20 11.21817 125.02741 22 ft 3 kts 206°
2026-04-18 08:20 11.21825 125.02719 22 ft 5 kts 337°
2026-04-18 08:21 11.21867 125.02715 22 ft 6 kts
2026-04-18 08:21 11.21902 125.02717 22 ft 4 kts
2026-04-18 08:21 11.21997 125.02723 21 ft 40 kts
2026-04-18 08:21 11.22620 125.02765 20 ft 134 kts
2026-04-18 08:22 11.23803 125.02840 254 ft 189 kts
2026-04-18 08:22 11.25132 125.02954 1153 ft 200 kts
2026-04-18 08:22 11.26512 125.03080 2217 ft 200 kts
2026-04-18 08:22 11.27927 125.03200 2758 ft 210 kts
2026-04-18 08:23 11.29478 125.03307 3066 ft 235 kts
2026-04-18 08:23 11.31168 125.03387 3552 ft 253 kts
2026-04-18 08:23 11.32973 125.03404 4128 ft 266 kts 352°
2026-04-18 08:23 11.34655 125.02637 4860 ft 272 kts 321°
2026-04-18 08:24 11.35997 125.01290 5700 ft 273 kts 316°
2026-04-18 08:24 11.37334 124.99912 6479 ft 276 kts 316°
2026-04-18 08:24 11.37784 124.99453 6730 ft 277 kts 316°